This demonstration page uses our WeatherBlox Daily Observations layout. Learn more.

Left ArrowRight Arrow

30.21309, -93.2044

Hourly Observations for March 12, 2015

Temp ( °F °C ) Dew Point ( °F °C ) Humidity (%) Winds ( mph kmh ) Pressure ( in mb ) Visibility ( mi km ) Precip ( " mm )
12:15 am 00:15 Cloudy 58 14.5 56 13.1 91 91 NNE 12 19 30.12 1020 10 16 0.00 0.00
12:35 am 00:35 Cloudy 58 14.5 55 13 91 91 NNE 12 19 30.12 1020 10 16 0.00 0.00
12:55 am 00:55 Cloudy with Light Rain 58 14.3 55 13 92 92 NNE 9 15 30.09 1019 10 16 0.00 0.00
1:15 am 01:15 Cloudy 58 14.2 55 12.8 91 91 NNE 12 19 30.09 1019 10 16 0.00 0.00
1:35 am 01:35 Cloudy with Nearby Thunderstorms 58 14.2 55 12.6 90 90 NE 10 17 30.09 1019 10 16 0.00 0.00
1:55 am 01:55 Cloudy 58 14.2 55 12.6 90 90 NNE 9 15 30.09 1019 10 16 0.00 0.00
2:15 am 02:15 Cloudy 57 14.1 55 12.6 91 91 NNE 7 11 30.09 1019 10 16 0.00 0.00
2:35 am 02:35 Cloudy 57 14.1 55 12.6 91 91 N 3 6 30.09 1019 10 16 0.00 0.00
2:55 am 02:55 Cloudy 57 14 55 12.5 91 91 NNE 7 11 30.09 1019 10 16 0.00 0.00
3:15 am 03:15 Cloudy with Drizzle 57 13.7 55 12.7 94 94 NNE 7 11 30.09 1019 7 11 0.01 0.25
3:35 am 03:35 Cloudy with Light Rain 56 13.5 55 12.8 96 96 NNE 9 15 30.06 1018 5 8 0.01 0.25
3:55 am 03:55 Cloudy with Mist and Fog 56 13.4 55 12.8 96 96 N 8 13 30.06 1018 5 8 0.01 0.25
4:15 am 04:15 Cloudy with Mist and Fog 56 13.3 55 12.8 97 97 NNE 5 7 30.06 1018 5 8 0.00 0.00
4:35 am 04:35 Cloudy with Drizzle 56 13.2 55 12.8 97 97 NNE 5 7 30.06 1018 4 6 0.00 0.00
4:55 am 04:55 Cloudy with Nearby Thunderstorms 56 13.2 55 12.8 97 97 NNE 7 11 30.06 1018 5 8 0.00 0.00
5:15 am 05:15 Cloudy with Nearby Thunderstorms 56 13.2 55 12.9 98 98 NE 7 11 30.06 1018 5 8 0.00 0.00
6:00 am 06:00 Cloudy with Light Rain 55 13 55 13 100 100 NNE 13 20 30.03 1017 5 8 0.00 0.00
6:50 am 06:50 Cloudy with Light Rain 55 13 55 13 100 100 NNE 13 20 30.03 1017 5 8 0.00 0.00
7:50 am 07:50 Cloudy with Light Rain 57 14 55 13 94 94 N 8 13 30.06 1018 5 8 0.00 0.00
8:45 am 08:45 Cloudy with Light Rain 57 14 55 13 94 94 N 8 13 30.06 1018 5 8 0.00 0.00
11:45 am 11:45 Cloudy with Mist and Fog 63 17 61 16 94 94 ENE 7 11 30.06 1018 6 10 0.00 0.00
12:55 pm 12:55 Cloudy 70 21 66 19 88 88 E 12 19 30.03 1017 10 16 0.00 0.00
2:50 pm 14:50 Cloudy 73 23 64 18 74 74 ESE 14 22 29.97 1015 10 16 0.00 0.00
3:50 pm 15:50 Mostly Cloudy 73 23 66 19 78 78 ESE 16 26 29.94 1014 10 16 0.00 0.00
4:50 pm 16:50 Cloudy 72 22 64 18 78 78 ESE 13 20 29.97 1015 10 16 0.00 0.00
5:50 pm 17:50 Cloudy with Light Rain 72 22 66 19 83 83 ESE 13 20 29.94 1014 10 16 0.00 0.00
6:50 pm 18:50 Cloudy 70 21 66 19 88 88 E 8 13 29.94 1014 10 16 0.00 0.00
7:50 pm 19:50 Cloudy 70 21 66 19 88 88 SE 10 17 29.97 1015 10 16 0.00 0.00
8:50 pm 20:50 Cloudy with Mist and Fog 66 19 66 19 100 100 SE 12 19 29.97 1015 3 5 0.00 0.00
9:50 pm 21:50 Cloudy with Mist and Fog 66 19 66 19 100 100 SE 8 13 29.97 1015 4 6 0.00 0.00
10:15 pm 22:15 Cloudy with Mist and Fog 66 18.8 65 18.6 99 99 SE 8 13 29.97 1015 5 8 0.00 0.00
10:35 pm 22:35 Cloudy 65 18.6 65 18.3 98 98 ESE 7 11 29.97 1015 7 11 0.00 0.00
10:55 pm 22:55 Mostly Cloudy with Mist and Fog 65 18.5 65 18.1 98 98 ESE 8 13 29.97 1015 5 8 0.00 0.00
11:15 pm 23:15 Mostly Cloudy with Mist and Fog 65 18.5 65 18.1 98 98 SE 9 15 29.97 1015 5 8 0.00 0.00
11:35 pm 23:35 Cloudy 65 18.2 64 17.5 96 96 SSE 14 22 29.97 1015 10 16 0.00 0.00
11:55 pm 23:55 Mostly Cloudy 64 17.8 62 16.8 94 94 SSE 14 22 29.97 1015 10 16 0.00 0.00

Powered by AerisWeather